Location: Huesca
(42.1318°N, 0.4078°W)
Time: 05:26:01
(UTC+02:00)

RS-15 - Pass Details

Date: 26 April 2024
Orbit: 1896 x 2149 km, 64.8° (Epoch: 29 May)

Event Time Altitude Azimuth Distance (km) Brightness Sun altitude
Rises 03:41:37 0° 316° (NW) 5,455 10.6 -29.5°
Reaches altitude 10° 03:45:50 10° 328° (NNW) 4,416 10.2 -29.1°
Maximum altitude 03:55:15 29° 25° (NNE) 3,083 9.6 -28.2°
Drops below altitude 10° 04:04:22 10° 82° (E) 4,291 10.3 -27.3°
Sets 04:08:21 0° 94° (E) 5,278 10.7 -26.8°
